Location: Unspecified
(33.6682°S, 0.0000°E)
Time: 19:19:23
(UTC+00:00)

S-56A Canister/Altair - Pass Details

Date: 02 July 2019
Orbit: 632 x 2500 km, 38.9° (Epoch: 15 July)

Event Time Altitude Azimuth Distance (km) Brightness Sun altitude
Exits shadow 03:37:34 52° 127° (SE) 1,803 9.4 -42.4°
Drops below altitude 10° 03:46:31 10° 94° (E) 4,330 12.0 -40.5°
Sets 03:50:41 0° 90° (E) 5,592 12.8 -39.6°
